Tracking 29528 objects as of 12-Sep-2024
HD Live streaming from Space Station
objects crossing your sky now

ARIANE 44L DEB

Track ARIANE 44L DEB now!


NORAD ID: 28575
Int'l Code: 1991-075M
Perigee: 815.4 km
Apogee: 28,687.5 km
Inclination: 6.3 °
Period: 509.2 minutes
Semi major axis: 21122 km
RCS: 1.3642 m2 (large)
Launch date: October 29, 1991
Source: France (FR)
Launch site: FRENCH GUIANA (FRGUI)

Note: This is SATELLITE DEBRIS
Your satellite tracking list
Your tracking list is empty




NASA's NSSDC Master Catalog

Two Line Element Set (TLE):
1 28575U 91075M   24255.66644191 -.00000313  00000-0 -92876-2 0  9997
2 28575   6.2564 317.4947 6597738 149.4713 183.6110  2.82804383232264
Source of the keplerian elements: AFSPC